Weather History for Amsterdam Airport Schiphol, Netherlands

Change the Weather History Date:

Monday, June 24, 2013

  Actual Average Record
Temperature  
Mean Temperature 58 °F -  
Max Temperature 62 °F 68 °F - ()
Min Temperature 51 °F 53 °F - ()
Degree Days  
Heating Degree Days 8    
Growing Degree Days 8 (Base 50)    
Moisture  
Dew Point 51 °F    
Average Humidity 83    
Maximum Humidity 94    
Minimum Humidity 62    
Precipitation  
Precipitation 0.01 in - - ()
Sea Level Pressure  
Sea Level Pressure 30.07 in    
Wind  
Wind Speed 12 mph ()    
Max Wind Speed 16 mph    
Max Gust Speed -    
Visibility 7.0 miles    
Events Rain    
T = Trace of Precipitation, MM = Missing Value Source: Averaged Metar Reports

Daily Weather History Graph

Daily Weather History Graph

Search for Another Location

Airport:

Trip Planner

Search our weather history database for the weather conditions in past years. The results will help you decide how hot, cold, wet, or windy it might be!

Date:

Astronomy

Jun. 24, 2013 Rise Set
Actual Time 5:19 AM CEST 10:06 PM CEST
Civil Twilight 4:30 AM CEST 10:56 PM CEST
Nautical Twilight 3:08 AM CEST 12:17 AM CEST
Astronomical Twilight Sun does not rise Sun does not rise
Moon 10:38 PM CEST (6/24) 6:42 AM CEST (6/24)
Length of Visible Light 18h 26m
Length of Day
16h 47m
Full, 99% of the Moon is Illuminated
Jun 24
Full
Jun 30
Last Quarter
Jul 8
New
Jul 16
First Quarter
Jul 22
Full

Hourly Weather History & Observations

Time (CEST) Temp. Dew Point Humidity Pressure Visibility Wind Dir Wind Speed Gust Speed Precip Events Conditions
12:25 AM 57.2 °F 53.6 °F 88% 29.86 in 6.2 mi WSW 16.1 mph - N/A   Scattered Clouds
12:55 AM 57.2 °F 53.6 °F 88% 29.89 in 6.2 mi WSW 15.0 mph - N/A   Partly Cloudy
1:25 AM 57.2 °F 53.6 °F 88% 29.89 in 6.2 mi WSW 15.0 mph - N/A   Scattered Clouds
1:55 AM 57.2 °F 51.8 °F 82% 29.89 in 6.2 mi West 15.0 mph - N/A   Scattered Clouds
2:00 AM 57 °F 52 °F 78% 29.91 in 14 mi West 15.7 mph - -   Partly Cloudy
2:25 AM 57.2 °F 51.8 °F 82% 29.89 in 6.2 mi WSW 13.8 mph - N/A   Partly Cloudy
2:55 AM 57.2 °F 51.8 °F 82% 29.92 in 6.2 mi WSW 12.7 mph - N/A   Scattered Clouds
3:25 AM 55.4 °F 50.0 °F 82% 29.92 in 6.2 mi WSW 13.8 mph - N/A   Mostly Cloudy
3:55 AM 55.4 °F 50.0 °F 82% 29.92 in 6.2 mi WSW 11.5 mph - N/A   Overcast
4:25 AM 55.4 °F 50.0 °F 82% 29.92 in 6.2 mi WSW 13.8 mph - N/A   Overcast
4:55 AM 55.4 °F 50.0 °F 82% 29.95 in 6.2 mi West 11.5 mph - N/A   Overcast
5:00 AM 56 °F 51 °F 76% 29.95 in 12 mi West 11.2 mph - -   Overcast
5:25 AM 55.4 °F 50.0 °F 82% 29.95 in 6.2 mi West 12.7 mph - N/A   Overcast
5:55 AM 55.4 °F 51.8 °F 88% 29.95 in 6.2 mi West 12.7 mph - N/A   Mostly Cloudy
6:25 AM 55.4 °F 51.8 °F 88% 29.95 in 6.2 mi West 10.4 mph - N/A   Mostly Cloudy
6:55 AM 55.4 °F 51.8 °F 88% 29.98 in 6.2 mi West 10.4 mph - N/A   Overcast
7:25 AM 55.4 °F 51.8 °F 88% 29.98 in 6.2 mi West 11.5 mph - N/A   Mostly Cloudy
7:55 AM 55.4 °F 53.6 °F 94% 29.98 in 6.2 mi West 10.4 mph - N/A Rain Light Rain
8:00 AM 56 °F 53 °F 86% 30.01 in 9 mi West 11.2 mph - - Rain Light Drizzle
8:25 AM 55.4 °F 53.6 °F 94% 30.01 in 6.2 mi WNW 11.5 mph - N/A Rain Light Rain
8:55 AM 55.4 °F 51.8 °F 88% 30.01 in 6.2 mi WNW 10.4 mph - N/A   Mostly Cloudy
9:25 AM 55.4 °F 53.6 °F 94% 30.01 in 6.2 mi West 11.5 mph - N/A Rain Light Rain
9:55 AM 55.4 °F 53.6 °F 94% 30.04 in 6.2 mi WNW 11.5 mph - N/A Rain Light Rain
10:25 AM 57.2 °F 53.6 °F 88% 30.04 in 6.2 mi WNW 10.4 mph - N/A Rain Light Rain
10:55 AM 55.4 °F 53.6 °F 94% 30.06 in 6.2 mi WNW 11.5 mph - N/A   Light Drizzle
11:00 AM 56 °F 53 °F 86% 30.07 in 6 mi WNW 11.2 mph - - Rain Light Rain Showers
11:25 AM 57.2 °F 53.6 °F 88% 30.06 in 6.2 mi WNW 11.5 mph - N/A   Mostly Cloudy
11:55 AM 55.4 °F 51.8 °F 88% 30.06 in 6.2 mi WNW 11.5 mph - N/A   Mostly Cloudy
12:25 PM 57.2 °F 51.8 °F 82% 30.09 in 6.2 mi WNW 12.7 mph - N/A   Mostly Cloudy
12:55 PM 59.0 °F 51.8 °F 77% 30.09 in 6.2 mi West 12.7 mph - N/A   Scattered Clouds
1:25 PM 59.0 °F 51.8 °F 77% 30.09 in 6.2 mi WNW 12.7 mph - N/A   Scattered Clouds
1:55 PM 59.0 °F 51.8 °F 77% 30.09 in 6.2 mi WNW 13.8 mph - N/A   Scattered Clouds
2:00 PM 59 °F 49 °F 62% 30.12 in 19 mi WNW 15.7 mph - -   Partly Cloudy
2:25 PM 59.0 °F 51.8 °F 77% 30.12 in 6.2 mi WNW 16.1 mph - N/A   Scattered Clouds
2:55 PM 60.8 °F 53.6 °F 77% 30.12 in 6.2 mi WNW 16.1 mph - N/A   Scattered Clouds
3:25 PM 60.8 °F 51.8 °F 72% 30.12 in 6.2 mi West 16.1 mph - N/A   Scattered Clouds
3:55 PM 57.2 °F 50.0 °F 77% 30.15 in 6.2 mi West 16.1 mph - N/A   Mostly Cloudy
4:25 PM 59.0 °F 51.8 °F 77% 30.15 in 6.2 mi WNW 16.1 mph - N/A   Mostly Cloudy
4:55 PM 57.2 °F 50.0 °F 77% 30.15 in 6.2 mi WNW 16.1 mph - N/A   Mostly Cloudy
5:00 PM 58 °F 50 °F 68% 30.18 in 17 mi WNW 15.7 mph - -   Overcast
5:25 PM 57.2 °F 50.0 °F 77% 30.15 in 6.2 mi WNW 16.1 mph - N/A   Mostly Cloudy
5:55 PM 57.2 °F 50.0 °F 77% 30.18 in 6.2 mi WNW 13.8 mph - N/A   Mostly Cloudy
6:25 PM 57.2 °F 50.0 °F 77% 30.18 in 6.2 mi WNW 12.7 mph - N/A   Mostly Cloudy
6:55 PM 55.4 °F 50.0 °F 82% 30.18 in 6.2 mi WNW 13.8 mph - N/A   Mostly Cloudy
7:25 PM 55.4 °F 50.0 °F 82% 30.18 in 6.2 mi WNW 13.8 mph - N/A   Mostly Cloudy
7:55 PM 55.4 °F 50.0 °F 82% 30.18 in 6.2 mi NW 11.5 mph - N/A   Mostly Cloudy
8:00 PM 55 °F 50 °F 76% 30.22 in 11 mi WNW 11.2 mph - -   Partly Cloudy
8:25 PM 55.4 °F 50.0 °F 82% 30.21 in 6.2 mi NW 10.4 mph - N/A   Mostly Cloudy
8:55 PM 55.4 °F 50.0 °F 82% 30.21 in 6.2 mi WNW 10.4 mph - N/A   Scattered Clouds
9:25 PM 53.6 °F 48.2 °F 82% 30.21 in 6.2 mi NW 10.4 mph - N/A   Partly Cloudy
9:55 PM 53.6 °F 48.2 °F 82% 30.21 in 6.2 mi WNW 8.1 mph - N/A   Partly Cloudy
10:25 PM 53.6 °F 50.0 °F 88% 30.24 in 6.2 mi WNW 9.2 mph - N/A Rain Light Rain
10:55 PM 53.6 °F 50.0 °F 88% 30.24 in 6.2 mi WNW 8.1 mph - N/A Rain Light Rain
11:00 PM 53 °F 50 °F 84% 30.26 in 9 mi WNW 6.7 mph - - Rain Light Rain
11:25 PM 53.6 °F 50.0 °F 88% 30.24 in 6.2 mi WNW 6.9 mph - N/A   Partly Cloudy
11:55 PM 51.8 °F 50.0 °F 94% 30.24 in 6.2 mi WNW 6.9 mph - N/A   Partly Cloudy